Regional Weather Roundup
Issued by NWS

Home | Current Version | Previous Version | Graphics & Text | Print | Product List | Glossary Off
Versions: 1 2 3 4 5 6 7 8 9 10 11 12 13 14 15 16 17 18 19 20 21 22 23 24 25 26 27 28 29 30 31 32 33 34 35 36 37 38 39 40 41 42 43 44 45 46 47 48 49 50

000
ASUS43 KDTX 250610
RWRMI
MICHIGAN HOURLY REGIONAL WEATHER ROUNDUP
NATIONAL WEATHER SERVICE DETROIT/PONTIAC MI
200 AM EDT SAT OCT 25 2014

NOTE: "FAIR" INDICATES FEW OR NO CLOUDS BELOW 12,000 FEET WITH NO
SIGNIFICANT WEATHER AND/OR OBSTRUCTION TO VISIBILITY.

MIZ047>049-052>055-059>063-066>070-074>076-081>083-250700-
SOUTHEAST LOWER MICHIGAN

CITY           SKY/WX    TMP DP  RH WIND       PRES   REMARKS
ADRIAN         PTCLDY    46  44  93 SW5       29.95F FOG
6HR MIN TEMP:  42; 6HR MAX TEMP:  51;

ALMA           FOG       39  39  98 CALM      29.90F VSB 1/2
ANN ARBOR      FOG       36  35  96 CALM      29.93F VSB 1/2
BAD AXE        FOG       42  42 100 SW3       29.89F VSB 1/2
6HR MIN TEMP:  40; 6HR MAX TEMP:  50;

DETROIT CITY   PTCLDY    53  46  77 SW6       29.93F
6HR MIN TEMP:  53; 6HR MAX TEMP:  59;

DETROIT        MOCLDY    46  43  89 S5        29.94F FOG
6HR MIN TEMP:  46; 6HR MAX TEMP:  57;

FLINT          PTCLDY    49  45  86 SW3       29.93F FOG
6HR MIN TEMP:  48; 6HR MAX TEMP:  57;

GROSSE ILE     PTCLDY    52  46  82 S5        29.93F
HILLSDALE      MOCLDY    45  45  99 SW3       29.94F FOG
6HR MIN TEMP:  44; 6HR MAX TEMP:  51;

HOWELL         PTCLDY    46  45  97 SW3       29.92F FOG
6HR MIN TEMP:  45; 6HR MAX TEMP:  56;


CITY           SKY/WX    TMP DP  RH WIND       PRES   REMARKS
JACKSON        MOCLDY    44  43  96 SW5       29.93S FOG
6HR MIN TEMP:  43; 6HR MAX TEMP:  50;

LAMBERTVILLE   PTCLDY    52  46  82 SW5       29.95F
LANSING        MOCLDY    45  42  89 CALM      29.93S FOG
6HR MIN TEMP:  43; 6HR MAX TEMP:  55;

LAPEER         NOT AVBL
MASON            N/A     43  43  97 CALM      29.92F FOG
MONROE         PTCLDY    45  45 100 SW3       29.93F FOG
MT. CLEMENS    PTCLDY    51  48  90 SW6       29.90F
6HR MIN TEMP:  51; 6HR MAX TEMP:  56;

PONTIAC        PTCLDY    46  44  93 CALM      29.92F FOG
6HR MIN TEMP:  46; 6HR MAX TEMP:  56;

PORT HOPE        N/A     48  45  89 SW3       29.85F
6HR MIN TEMP:  46; 6HR MAX TEMP:  52;

PORT HURON     PTCLDY    45  43  93 CALM      29.92F
TRI CITIES     PTCLDY    48  45  89 SW8       29.90F FOG
6HR MIN TEMP:  47; 6HR MAX TEMP:  58;

YPSILANTI      PTCLDY    47  42  83 SW5       29.94F HAZE
6HR MIN TEMP:  47; 6HR MAX TEMP:  58;

$$
MIZ043>046-050>051-056>058-064>065-071>073-077>080-250700-
SOUTHWEST LOWER MICHIGAN

CITY           SKY/WX    TMP DP  RH WIND       PRES   REMARKS
BATTLE CREEK   MOCLDY    45  41  86 S3        29.94S
6HR MIN TEMP:  43; 6HR MAX TEMP:  54;

BENTON HARBOR  CLOUDY    53  49  86 SW3       29.92F
6HR MIN TEMP:  46; 6HR MAX TEMP:  54; 6HR PCP: TRACE;

BIG RAPIDS     FOG       42  42 100 CALM      29.87F VSB 1/2
6HR MIN TEMP:  42; 6HR MAX TEMP:  52;

COLDWATER      PTCLDY    49  49  97 SW7       29.95S FOG
6HR MIN TEMP:  43; 6HR MAX TEMP:  52;

HOLLAND        CLOUDY    53  49  86 S5        29.91F
6HR MIN TEMP:  47; 6HR MAX TEMP:  53;

GRAND RAPIDS   MOCLDY    46  44  93 CALM      29.91F FOG
6HR MIN TEMP:  44; 6HR MAX TEMP:  54;

KALAMAZOO      MOCLDY    49  47  93 S6        29.93F FOG
6HR MIN TEMP:  43; 6HR MAX TEMP:  53;

MARSHALL       FOG       39  38  99 CALM      29.93S VSB 1/4
MUSKEGON       CLOUDY    51  48  89 S5        29.89F FOG
6HR MIN TEMP:  46; 6HR MAX TEMP:  53;

$$
MIZ016>042-250700-
NORTHERN LOWER MICHIGAN

CITY           SKY/WX    TMP DP  RH WIND       PRES   REMARKS
ALPENA         PTCLDY    46  45  96 SW5       29.81F
6HR MIN TEMP:  37; 6HR MAX TEMP:  53;

BEAVER ISLAND  CLOUDY    52  50  93 SW10G17   29.76F FOG
6HR MIN TEMP:  50; 6HR MAX TEMP:  52;

BELLAIRE       CLEAR     47  45  91 S3        29.81F
CADILLAC       PTCLDY    44  44 100 S6        29.85F FOG
CHARLEVOIX     MOCLDY    50  49  94 S8        29.81F
6HR MIN TEMP:  49; 6HR MAX TEMP:  52;

FRANKFORT      CLOUDY    54  49  82 SW9       29.82F
GAYLORD        CLEAR     46  43  89 SW10      29.81F
6HR MIN TEMP:  45; 6HR MAX TEMP:  50;

GRAYLING       CLEAR     44  44 100 S3        29.84F
6HR MIN TEMP:  39; 6HR MAX TEMP:  51;

HARBOR SPRINGS CLOUDY    51  47  86 SW7       29.79F
HOUGHTON LAKE  PTCLDY    45  44  97 S5        29.85F FOG
6HR MIN TEMP:  45; 6HR MAX TEMP:  52;

MANISTEE       CLOUDY    48  45  87 SE3       29.84F
OSCODA         CLEAR     44  43  99 SW6       29.84F FOG
PELLSTON       MOCLDY    49  46  90 CALM      29.79F
6HR MIN TEMP:  45; 6HR MAX TEMP:  52;

TRAVERSE CITY  PTCLDY    50  46  86 VRB3      29.79F
6HR MIN TEMP:  49; 6HR MAX TEMP:  53;

$$
MIZ007>008-015-250700-
EASTERN UPPER MICHIGAN

CITY           SKY/WX    TMP DP  RH WIND       PRES   REMARKS
KINROSS        CLOUDY    50  48  93 S8        29.75F
6HR MIN TEMP:  50; 6HR MAX TEMP:  50;

MACKINAC ISLAN CLOUDY    48  48  97 SW5       29.77F
6HR MIN TEMP:  48; 6HR MAX TEMP:  51;

NEWBERRY       CLOUDY    48  48 100 SW13G22   29.73F FOG
S. S. MARIE    CLOUDY    50  46  86 S8        29.74F
6HR MIN TEMP:  50; 6HR MAX TEMP:  51;

$$
MIZ004>006-011>014-085-250700-
CENTRAL UPPER MICHIGAN

CITY           SKY/WX    TMP DP  RH WIND       PRES   REMARKS
MANISTIQUE     CLOUDY    50  50 100 SW8       29.75F FOG
ESCANABA       CLOUDY    52  46  82 SW7       29.75F
6HR MIN TEMP:  50; 6HR MAX TEMP:  52;

MENOMINEE      CLOUDY    54  48  82 W6        29.77F
6HR MIN TEMP:  48; 6HR MAX TEMP:  54;

SAWYER-GWINN   PTCLDY    48  46  92 S7        29.70F
$$
MIZ001>003-009>011-084-250700-
WESTERN UPPER MICHIGAN

CITY           SKY/WX    TMP DP  RH WIND       PRES   REMARKS
IRON MOUNTAIN  PTCLDY    55  49  80 W8        29.74F
6HR MIN TEMP:  50; 6HR MAX TEMP:  56;

HOUGHTON       CLOUDY    59  47  64 W24G37    29.64F
6HR MIN TEMP:  54; 6HR MAX TEMP:  60;

COPPER HARBOR    N/A     63  47  55 W16G29    29.60S
6HR MIN TEMP:  52; 6HR MAX TEMP:  63;

IRONWOOD       PTCLDY    55  50  82 W16       29.73F
6HR MIN TEMP:  55; 6HR MAX TEMP:  59;

$$

ABBREVIATIONS USED IN REMARKS
   TC - TEMPERATURE IN CELSIUS
  WCI - WIND CHILL INDEX
   HX - HEAT INDEX
  VSB - VISIBILITY




USA.gov is the U.S. government's official web portal to all federal, state and local government web resources and services.